Muscatine, IA

8:18 PM CST on November 19, 2019 (GMT -0600)
Muscatine Municipal

Weather History for KMUT - October, 2019

Change the Weather History Date:

Tuesday, October 22, 2019

  Actual Average Record
Temperature  
Mean Temperature 48 °F -  
Max Temperature 55 °F 65 °F 84 °F (1963)
Min Temperature 42 °F 41 °F -99 °F (2000)
Degree Days  
Heating Degree Days 16    
Moisture  
Dew Point 35 °F    
Average Humidity 60    
Maximum Humidity 76    
Minimum Humidity 35    
Precipitation  
Precipitation 0.00 in - - ()
Sea Level Pressure  
Sea Level Pressure 29.71 in    
Wind  
Wind Speed 21 mph ()    
Max Wind Speed 31 mph    
Max Gust Speed 41 mph    
Visibility 10.0 miles    
Events      
Averages and records for this station are not official NWS values.
T = Trace of Precipitation, MM = Missing Value Source: Averaged Metar Reports

Daily Weather History Graph

Daily Weather History Graph

Search for Another Location

Airport or City:

Astronomy

Oct. 22, 2019 Rise Set
Actual Time 7:24 AM CDT 6:13 PM CDT
Civil Twilight 6:55 AM CDT 6:41 PM CDT
Nautical Twilight 6:23 AM CDT 7:13 PM CDT
Astronomical Twilight 5:51 AM CDT 7:45 PM CDT
Moon 12:28 AM CDT (10/22) 3:28 PM CDT (10/22)
Length of Visible Light 11h 45m
Length of Day
10h 49m
Last Quarter, 37% of the Moon is Illuminated
Oct 22
Last Quarter
Oct 27
New
Nov 4
First Quarter
Nov 12
Full
Nov 19
Last Quarter

Hourly Weather History & Observations

Time (CDT) Temp. Windchill Dew Point Humidity Pressure Visibility Wind Dir Wind Speed Gust Speed Precip Events Conditions
12:15 AM 50.0 °F - 41.0 °F 71% 29.51 in 10.0 mi SW 23.0 mph 29.9 mph N/A   Overcast
12:35 AM 50.0 °F - 42.8 °F 76% 29.51 in 10.0 mi SW 18.4 mph 28.8 mph N/A   Overcast
12:55 AM 50.0 °F - 42.8 °F 76% 29.51 in 10.0 mi SW 21.9 mph 35.7 mph N/A   Overcast
1:15 AM 50.0 °F - 42.8 °F 76% 29.51 in 10.0 mi WSW 27.6 mph 34.5 mph N/A   Overcast
1:35 AM 50.0 °F - 42.8 °F 76% 29.51 in 10.0 mi WSW 21.9 mph 36.8 mph N/A   Overcast
1:55 AM 50.0 °F - 42.8 °F 76% 29.51 in 10.0 mi WSW 21.9 mph 33.4 mph N/A   Overcast
2:15 AM 50.0 °F - 41.0 °F 71% 29.52 in 10.0 mi WSW 24.2 mph 39.1 mph N/A   Overcast
2:35 AM 50.0 °F - 41.0 °F 71% 29.52 in 10.0 mi WSW 27.6 mph 34.5 mph N/A   Overcast
2:55 AM 50.0 °F - 41.0 °F 71% 29.52 in 10.0 mi WSW 21.9 mph 36.8 mph N/A   Overcast
3:15 AM 50.0 °F - 41.0 °F 71% 29.53 in 10.0 mi WSW 21.9 mph 33.4 mph N/A   Overcast
3:35 AM 50.0 °F - 41.0 °F 71% 29.54 in 10.0 mi WSW 27.6 mph 33.4 mph N/A   Overcast
3:55 AM 50.0 °F - 41.0 °F 71% 29.54 in 10.0 mi WSW 21.9 mph 33.4 mph N/A   Overcast
4:15 AM 50.0 °F - 41.0 °F 71% 29.55 in 10.0 mi WSW 24.2 mph 33.4 mph N/A   Overcast
4:35 AM 50.0 °F - 39.2 °F 66% 29.56 in 10.0 mi WSW 26.5 mph 36.8 mph N/A   Overcast
4:55 AM 48.2 °F - 41.0 °F 76% 29.57 in 10.0 mi WSW 23.0 mph 34.5 mph N/A   Overcast
5:15 AM 48.2 °F - 41.0 °F 76% 29.58 in 10.0 mi West 26.5 mph 33.4 mph N/A   Overcast
5:35 AM 48.2 °F - 41.0 °F 76% 29.58 in 10.0 mi West 25.3 mph 40.3 mph N/A   Overcast
5:55 AM 48.2 °F - 39.2 °F 71% 29.59 in 10.0 mi West 21.9 mph 31.1 mph N/A   Overcast
6:15 AM 48.2 °F - 39.2 °F 71% 29.60 in 10.0 mi West 23.0 mph 38.0 mph N/A   Overcast
6:35 AM 48.2 °F - 39.2 °F 71% 29.61 in 10.0 mi West 24.2 mph 32.2 mph N/A   Overcast
6:55 AM 48.2 °F - 41.0 °F 76% 29.62 in 10.0 mi West 24.2 mph 31.1 mph N/A   Light Drizzle
7:15 AM 48.2 °F - 39.2 °F 71% 29.62 in 10.0 mi West 20.7 mph 31.1 mph N/A   Overcast
7:35 AM 48.2 °F - 39.2 °F 71% 29.63 in 10.0 mi West 23.0 mph 35.7 mph N/A   Overcast
7:55 AM 48.2 °F - 37.4 °F 66% 29.64 in 10.0 mi West 26.5 mph 40.3 mph N/A   Overcast
8:15 AM 48.2 °F - 37.4 °F 66% 29.64 in 10.0 mi West 26.5 mph 39.1 mph N/A   Overcast
8:35 AM 48.2 °F - 37.4 °F 66% 29.65 in 10.0 mi West 24.2 mph 36.8 mph N/A   Overcast
8:55 AM 48.2 °F - 37.4 °F 66% 29.67 in 10.0 mi West 27.6 mph 36.8 mph N/A   Overcast
9:15 AM 48.2 °F - 35.6 °F 62% 29.68 in 10.0 mi West 28.8 mph 38.0 mph N/A   Overcast
9:35 AM 48.2 °F - 35.6 °F 62% 29.69 in 10.0 mi West 31.1 mph - N/A   Overcast
9:55 AM 48.2 °F - 35.6 °F 62% 29.70 in 10.0 mi West 29.9 mph 40.3 mph N/A   Overcast
10:15 AM 48.2 °F - 35.6 °F 62% 29.71 in 10.0 mi West 27.6 mph 34.5 mph N/A   Overcast
10:55 AM 48.2 °F - 35.6 °F 62% 29.72 in 10.0 mi West 25.3 mph 38.0 mph N/A   Scattered Clouds
11:15 AM 50.0 °F - 35.6 °F 58% 29.72 in 10.0 mi West 24.2 mph 33.4 mph N/A   Scattered Clouds
11:35 AM 50.0 °F - 35.6 °F 58% 29.73 in 10.0 mi West 27.6 mph 36.8 mph N/A   Mostly Cloudy
11:55 AM 50.0 °F - 35.6 °F 58% 29.74 in 10.0 mi West 23.0 mph 33.4 mph N/A   Mostly Cloudy
12:35 PM 50.0 °F - 37.4 °F 62% 29.74 in 10.0 mi West 23.0 mph 31.1 mph N/A   Overcast
12:55 PM 51.8 °F - 37.4 °F 58% 29.74 in 10.0 mi WSW 23.0 mph 33.4 mph N/A   Overcast
1:15 PM 51.8 °F - 37.4 °F 58% 29.74 in 10.0 mi West 25.3 mph 32.2 mph N/A   Overcast
1:35 PM 51.8 °F - 37.4 °F 58% 29.74 in 10.0 mi West 20.7 mph 28.8 mph N/A   Overcast
1:55 PM 51.8 °F - 37.4 °F 58% 29.74 in 10.0 mi West 26.5 mph 33.4 mph N/A   Overcast
2:15 PM 53.6 °F - 37.4 °F 54% 29.74 in 10.0 mi West 18.4 mph 33.4 mph N/A   Overcast
2:35 PM 53.6 °F - 37.4 °F 54% 29.74 in 10.0 mi West 23.0 mph 34.5 mph N/A   Mostly Cloudy
2:55 PM 55.4 °F - 37.4 °F 51% 29.74 in 10.0 mi West 21.9 mph 38.0 mph N/A   Mostly Cloudy
3:15 PM 55.4 °F - 37.4 °F 51% 29.75 in 10.0 mi West 21.9 mph 27.6 mph N/A   Overcast
3:35 PM 55.4 °F - 33.8 °F 44% 29.76 in 10.0 mi West 24.2 mph 36.8 mph N/A   Mostly Cloudy
3:55 PM 55.4 °F - 33.8 °F 44% 29.76 in 10.0 mi West 23.0 mph 35.7 mph N/A   Overcast
4:15 PM 53.6 °F - 30.2 °F 41% 29.77 in 10.0 mi West 23.0 mph 35.7 mph N/A   Partly Cloudy
4:35 PM 55.4 °F - 28.4 °F 36% 29.78 in 10.0 mi West 31.1 mph 41.4 mph N/A   Partly Cloudy
4:55 PM 55.4 °F - 28.4 °F 36% 29.79 in 10.0 mi West 19.6 mph 33.4 mph N/A   Clear
5:15 PM 53.6 °F - 28.4 °F 38% 29.80 in 10.0 mi West 16.1 mph 25.3 mph N/A   Clear
5:35 PM 53.6 °F - 26.6 °F 35% 29.80 in 10.0 mi West 25.3 mph - N/A   Clear
5:55 PM 51.8 °F - 26.6 °F 38% 29.82 in 10.0 mi West 17.3 mph 28.8 mph N/A   Clear
6:15 PM 51.8 °F - 26.6 °F 38% 29.83 in 10.0 mi West 17.3 mph 28.8 mph N/A   Clear
6:35 PM 50.0 °F - 28.4 °F 43% 29.84 in 10.0 mi West 15.0 mph 23.0 mph N/A   Clear
6:55 PM 50.0 °F - 28.4 °F 43% 29.84 in 10.0 mi West 15.0 mph 20.7 mph N/A   Clear
7:15 PM 50.0 °F - 28.4 °F 43% 29.85 in 10.0 mi West 11.5 mph 19.6 mph N/A   Clear
7:35 PM 48.2 °F - 28.4 °F 46% 29.85 in 10.0 mi West 11.5 mph - N/A   Clear
7:55 PM 48.2 °F - 28.4 °F 46% 29.86 in 10.0 mi WSW 13.8 mph - N/A   Clear
8:15 PM 46.4 °F 41.1 °F 28.4 °F 50% 29.86 in 10.0 mi WSW 11.5 mph - N/A   Clear
8:35 PM 46.4 °F 41.1 °F 30.2 °F 53% 29.86 in 10.0 mi WSW 11.5 mph - N/A   Clear
8:55 PM 46.4 °F 40.7 °F 28.4 °F 50% 29.87 in 10.0 mi WSW 12.7 mph - N/A   Clear
9:15 PM 44.6 °F 39.2 °F 30.2 °F 57% 29.87 in 10.0 mi WSW 10.4 mph - N/A   Clear
9:35 PM 44.6 °F 38.8 °F 30.2 °F 57% 29.88 in 10.0 mi WSW 11.5 mph - N/A   Clear
10:15 PM 44.6 °F 39.2 °F 30.2 °F 57% 29.88 in 10.0 mi WSW 10.4 mph - N/A   Clear
10:35 PM 44.6 °F 39.7 °F 30.2 °F 57% 29.89 in 10.0 mi SW 9.2 mph - N/A   Clear
10:55 PM 44.6 °F 40.2 °F 30.2 °F 57% 29.88 in 10.0 mi SW 8.1 mph - N/A   Clear
11:15 PM 44.6 °F 39.7 °F 30.2 °F 57% 29.88 in 10.0 mi SW 9.2 mph - N/A   Clear
11:35 PM 42.8 °F 37.5 °F 30.2 °F 61% 29.87 in 10.0 mi SW 9.2 mph - N/A   Clear
11:55 PM 42.8 °F 37.0 °F 30.2 °F 61% 29.87 in 10.0 mi SW 10.4 mph - N/A   Partly Cloudy